Tracking 18032 objects as of 27-March-2017
HD Live streaming from Space Station
objects crossing your sky now

GLOBALSTAR M003


10-day predictions
GLOBALSTAR M003 is classified as:


NORAD ID: 25165
Int'l Code: 1998-008D
Launch date: February 14, 1998
Source: Globalstar (GLOB)
Launch site: AIR FORCE EASTERN TEST RANGE (AFETR)
Your satellite tracking list
Your tracking list is empty





NASA's NSSDC Master Catalog

Two Line Element Set (TLE):
1 25165U 98008D   17084.77062956 +.00000030 +00000-0 +12804-2 0  9996
2 25165 051.9805 213.0763 0006341 003.2658 153.4135 12.11914857868798
Source of the keplerian elements: AFSPC